TimeCST,TemperatureF,Dew PointF,Humidity,Sea Level PressureIn,VisibilityMPH,Wind Direction,Wind SpeedMPH,Gust SpeedMPH,PrecipitationIn,Events,Conditions,WindDirDegrees,DateUTC
12:15 AM,5.0,-4.0,66,30.09,7.0,North,-9999.0,-,N/A,,Overcast,0,2013-02-02 06:15:00
12:35 AM,5.0,-4.0,66,30.09,10.0,North,-9999.0,-,N/A,,Overcast,0,2013-02-02 06:35:00
12:55 AM,5.0,-4.0,66,30.09,10.0,North,-9999.0,-,N/A,,Overcast,0,2013-02-02 06:55:00
1:15 AM,5.0,-4.0,66,30.09,10.0,North,-9999.0,-,N/A,,Overcast,0,2013-02-02 07:15:00
1:35 AM,5.0,-4.0,66,30.09,10.0,North,-9999.0,-,N/A,,Overcast,0,2013-02-02 07:35:00
2:15 AM,5.0,-4.0,66,30.09,10.0,North,-9999.0,-,N/A,,Overcast,0,2013-02-02 08:15:00
2:35 AM,5.0,-2.2,72,30.08,10.0,North,-9999.0,-,N/A,,Overcast,0,2013-02-02 08:35:00
2:55 AM,5.0,-2.2,72,30.07,10.0,North,-9999.0,-,N/A,,Overcast,0,2013-02-02 08:55:00
3:15 AM,5.0,-2.2,72,30.07,7.0,North,-9999.0,-,N/A,,Overcast,0,2013-02-02 09:15:00
3:35 AM,5.0,-2.2,72,30.06,7.0,North,-9999.0,-,N/A,,Overcast,0,2013-02-02 09:35:00
3:55 AM,5.0,-4.0,66,30.06,10.0,North,-9999.0,-,N/A,,Overcast,0,2013-02-02 09:55:00
4:15 AM,5.0,-4.0,66,30.05,10.0,North,-9999.0,-,N/A,,Overcast,0,2013-02-02 10:15:00
4:35 AM,5.0,-4.0,66,30.05,10.0,North,-9999.0,-,N/A,,Overcast,0,2013-02-02 10:35:00
4:55 AM,5.0,-4.0,66,30.06,10.0,North,-9999.0,-,N/A,,Overcast,0,2013-02-02 10:55:00
5:15 AM,5.0,-4.0,66,30.06,10.0,North,-9999.0,-,N/A,,Overcast,0,2013-02-02 11:15:00
5:35 AM,5.0,-4.0,66,30.06,10.0,North,-9999.0,-,N/A,,Overcast,0,2013-02-02 11:35:00
5:55 AM,5.0,-4.0,66,30.06,10.0,North,-9999.0,-,N/A,,Overcast,0,2013-02-02 11:55:00
6:15 AM,5.0,-4.0,66,30.07,10.0,North,-9999.0,-,N/A,,Overcast,0,2013-02-02 12:15:00
6:35 AM,5.0,-4.0,66,30.07,10.0,North,-9999.0,-,N/A,,Overcast,0,2013-02-02 12:35:00
6:55 AM,5.0,-4.0,66,30.08,10.0,North,-9999.0,-,N/A,,Overcast,0,2013-02-02 12:55:00
7:15 AM,3.2,-5.8,66,30.08,10.0,North,-9999.0,-,N/A,,Overcast,0,2013-02-02 13:15:00
7:35 AM,3.2,-5.8,66,30.09,10.0,North,-9999.0,-,N/A,,Overcast,0,2013-02-02 13:35:00
7:55 AM,3.2,-5.8,66,30.09,10.0,North,-9999.0,-,N/A,,Overcast,0,2013-02-02 13:55:00
8:15 AM,3.2,-5.8,66,30.10,10.0,North,-9999.0,-,N/A,,Scattered Clouds,0,2013-02-02 14:15:00
8:35 AM,3.2,-5.8,66,30.10,10.0,North,-9999.0,-,N/A,,Clear,0,2013-02-02 14:35:00
8:55 AM,3.2,-5.8,66,30.10,10.0,North,-9999.0,-,N/A,,Clear,0,2013-02-02 14:55:00
9:15 AM,5.0,-5.8,61,30.10,10.0,North,-9999.0,-,N/A,,Clear,0,2013-02-02 15:15:00
9:35 AM,6.8,-5.8,56,30.10,10.0,North,-9999.0,-,N/A,,Clear,0,2013-02-02 15:35:00
9:55 AM,8.6,-4.0,57,30.09,10.0,North,-9999.0,-,N/A,,Clear,0,2013-02-02 15:55:00
10:15 AM,8.6,-4.0,57,30.09,10.0,North,-9999.0,-,N/A,,Clear,0,2013-02-02 16:15:00
10:35 AM,10.4,-4.0,52,30.09,10.0,North,-9999.0,-,N/A,,Clear,0,2013-02-02 16:35:00
10:55 AM,10.4,-4.0,52,30.09,10.0,North,-9999.0,-,N/A,,Clear,0,2013-02-02 16:55:00
11:15 AM,14.0,-2.2,49,30.09,10.0,North,-9999.0,-,N/A,,Clear,0,2013-02-02 17:15:00
11:55 AM,14.0,-2.2,49,30.07,10.0,North,-9999.0,-,N/A,,Clear,0,2013-02-02 17:55:00
12:15 PM,14.0,-2.2,49,30.07,10.0,North,-9999.0,-,N/A,,Clear,0,2013-02-02 18:15:00
12:35 PM,15.8,-2.2,45,30.06,10.0,North,-9999.0,-,N/A,,Clear,0,2013-02-02 18:35:00
12:55 PM,15.8,-2.2,45,30.06,10.0,North,-9999.0,-,N/A,,Clear,0,2013-02-02 18:55:00
1:15 PM,17.6,-2.2,42,30.05,10.0,North,-9999.0,-,N/A,,Clear,0,2013-02-02 19:15:00
1:35 PM,17.6,-2.2,42,30.05,10.0,North,-9999.0,-,N/A,,Clear,0,2013-02-02 19:35:00
1:55 PM,17.6,-2.2,42,30.05,10.0,North,-9999.0,-,N/A,,Clear,0,2013-02-02 19:55:00
2:15 PM,17.6,-4.0,38,30.04,10.0,North,-9999.0,-,N/A,,Clear,0,2013-02-02 20:15:00
2:35 PM,17.6,-4.0,38,30.04,10.0,North,-9999.0,-,N/A,,Clear,0,2013-02-02 20:35:00
2:55 PM,17.6,-4.0,38,30.04,10.0,North,-9999.0,-,N/A,,Clear,0,2013-02-02 20:55:00
3:15 PM,17.6,-4.0,38,30.04,10.0,North,-9999.0,-,N/A,,Clear,0,2013-02-02 21:15:00
3:35 PM,17.6,-4.0,38,30.03,10.0,North,-9999.0,-,N/A,,Clear,0,2013-02-02 21:35:00
3:55 PM,17.6,-2.2,42,30.03,10.0,North,-9999.0,-,N/A,,Clear,0,2013-02-02 21:55:00
4:15 PM,17.6,-0.4,45,30.03,10.0,North,-9999.0,-,N/A,,Clear,0,2013-02-02 22:15:00
4:35 PM,15.8,-0.4,49,30.04,10.0,North,-9999.0,-,N/A,,Clear,0,2013-02-02 22:35:00
4:55 PM,14.0,-0.4,53,30.04,10.0,North,-9999.0,-,N/A,,Clear,0,2013-02-02 22:55:00
5:15 PM,14.0,-0.4,53,30.05,10.0,North,-9999.0,-,N/A,,Clear,0,2013-02-02 23:15:00
5:35 PM,14.0,-0.4,53,30.05,10.0,North,-9999.0,-,N/A,,Clear,0,2013-02-02 23:35:00
5:55 PM,14.0,-0.4,53,30.05,10.0,North,-9999.0,-,N/A,,Clear,0,2013-02-02 23:55:00
6:15 PM,12.2,-0.4,57,30.04,10.0,North,-9999.0,-,N/A,,Clear,0,2013-02-03 00:15:00
6:35 PM,12.2,-0.4,57,30.04,10.0,North,-9999.0,-,N/A,,Clear,0,2013-02-03 00:35:00
6:55 PM,12.2,-0.4,57,30.04,10.0,North,-9999.0,-,N/A,,Clear,0,2013-02-03 00:55:00
7:35 PM,10.4,-0.4,62,30.03,10.0,North,-9999.0,-,N/A,,Scattered Clouds,0,2013-02-03 01:35:00
8:15 PM,8.6,-0.4,67,30.02,10.0,North,-9999.0,-,N/A,,Scattered Clouds,0,2013-02-03 02:15:00
8:35 PM,8.6,-0.4,67,30.02,10.0,North,-9999.0,-,N/A,,Scattered Clouds,0,2013-02-03 02:35:00
8:55 PM,6.8,-0.4,72,30.02,10.0,North,-9999.0,-,N/A,,Clear,0,2013-02-03 02:55:00
9:15 PM,5.0,-0.4,78,30.02,10.0,North,-9999.0,-,N/A,,Clear,0,2013-02-03 03:15:00
9:35 PM,3.2,-4.0,72,30.01,10.0,North,-9999.0,-,N/A,,Clear,0,2013-02-03 03:35:00
9:55 PM,5.0,-0.4,78,30.01,10.0,North,-9999.0,-,N/A,,Clear,0,2013-02-03 03:55:00
10:15 PM,5.0,-0.4,78,30.01,10.0,North,-9999.0,-,N/A,,Clear,0,2013-02-03 04:15:00
10:35 PM,5.0,-0.4,78,30.00,10.0,North,-9999.0,-,N/A,,Scattered Clouds,0,2013-02-03 04:35:00
10:55 PM,5.0,-0.4,78,29.98,10.0,North,-9999.0,-,N/A,,Clear,0,2013-02-03 04:55:00
11:15 PM,5.0,-0.4,78,29.97,10.0,North,-9999.0,-,N/A,,Scattered Clouds,0,2013-02-03 05:15:00
11:35 PM,5.0,-0.4,78,29.97,10.0,North,-9999.0,-,N/A,,Scattered Clouds,0,2013-02-03 05:35:00
11:55 PM,5.0,-0.4,78,29.96,10.0,North,-9999.0,-,N/A,,Mostly Cloudy,0,2013-02-03 05:55:00